Weather History for Omak, WA

Change the Weather History Date:

Saturday, October 27, 2012

  Actual Average Record
Temperature  
Mean Temperature 41 °F 44 °F  
Max Temperature 42 °F 55 °F 68 °F (1953)
Min Temperature 39 °F 33 °F 15 °F (1970)
Degree Days  
Heating Degree Days 24 21  
Month to date heating degree days 404 410  
Since 1 July heating degree days 470 571  
Cooling Degree Days 0 0  
Month to date cooling degree days 0 0  
Year to date cooling degree days 629 664  
Moisture  
Dew Point 38 °F    
Average Humidity 93    
Maximum Humidity 100    
Minimum Humidity 86    
Precipitation  
Precipitation 0.16 in 0.05 in 0.39 in (1950)
Month to date precipitation 0.78 0.90  
Year to date precipitation 11.55 10.50  
Sea Level Pressure  
Sea Level Pressure 30.01 in    
Wind  
Wind Speed 4 mph (South)    
Max Wind Speed 10 mph    
Max Gust Speed 13 mph    
Visibility 9 miles    
Events Rain    
T = Trace of Precipitation, MM = Missing Value Source: NWS Daily Summary

Daily Weather History Graph

Daily Weather History Graph

Search for Another Location

Airport:

Trip Planner

Search our weather history database for the weather conditions in past years. The results will help you decide how hot, cold, wet, or windy it might be!

Date:

Astronomy

Oct. 27, 2012 Rise Set
Actual Time 7:37 AM PDT 5:45 PM PDT
Civil Twilight 7:04 AM PDT 6:18 PM PDT
Nautical Twilight 6:27 AM PDT 6:54 PM PDT
Astronomical Twilight 5:51 AM PDT 7:31 PM PDT
Moon 4:38 PM PDT (10/27) 5:30 AM PDT (10/27)
Length of Visible Light 11h 13m
Length of Day
10h 08m
Waxing Gibbous, 96% of the Moon is Illuminated
Oct 27
Waxing Gibbous
Oct 29
Full
Nov 6
Last Quarter
Nov 13
New
Nov 20
First Quarter

Hourly Weather History & Observations

Time (PDT) Temp. Windchill Dew Point Humidity Pressure Visibility Wind Dir Wind Speed Gust Speed Precip Events Conditions
12:53 AM 39.0 °F 35.7 °F 37.0 °F 93% 30.09 in 10.0 mi South 4.6 mph - N/A   Overcast
1:53 AM 39.0 °F 35.7 °F 37.0 °F 93% 30.09 in 10.0 mi South 4.6 mph - N/A   Overcast
2:46 AM 39.2 °F 37.0 °F 37.4 °F 93% 30.06 in 10.0 mi South 3.5 mph - N/A   Overcast
2:53 AM 39.0 °F 36.8 °F 37.0 °F 93% 30.09 in 10.0 mi SSW 3.5 mph - N/A   Overcast
3:53 AM 39.0 °F - 37.0 °F 93% 30.09 in 10.0 mi Calm Calm - N/A   Overcast
4:53 AM 39.0 °F 36.8 °F 37.0 °F 93% 30.08 in 10.0 mi South 3.5 mph - N/A   Overcast
5:53 AM 39.0 °F 36.8 °F 37.0 °F 93% 30.08 in 8.0 mi SSW 3.5 mph - N/A   Overcast
6:14 AM 39.2 °F 35.9 °F 37.4 °F 93% 30.05 in 10.0 mi South 4.6 mph - N/A   Overcast
6:43 AM 39.2 °F 35.9 °F 37.4 °F 93% 30.05 in 10.0 mi South 4.6 mph - N/A   Overcast
8:53 AM 39.9 °F 37.8 °F 37.9 °F 93% 30.08 in 8.0 mi ESE 3.5 mph - N/A   Overcast
9:53 AM 39.9 °F - 37.9 °F 93% 30.07 in 9.0 mi Calm Calm - N/A   Overcast
10:53 AM 39.9 °F 35.1 °F 37.9 °F 93% 30.06 in 10.0 mi South 6.9 mph - N/A   Overcast
11:53 AM 41.0 °F 36.4 °F 37.0 °F 86% 30.06 in 10.0 mi SSW 6.9 mph - N/A   Overcast
12:53 PM 41.0 °F 38.0 °F 37.9 °F 89% 30.06 in 9.0 mi SSW 4.6 mph - 0.01 in Rain Light Rain
1:53 PM 41.0 °F 38.0 °F 39.0 °F 93% 30.04 in 6.0 mi South 4.6 mph - 0.06 in Rain Light Rain
2:53 PM 41.0 °F 38.0 °F 37.9 °F 89% 30.02 in 10.0 mi SSW 4.6 mph - 0.02 in   Overcast
3:53 PM 42.1 °F 40.2 °F 39.0 °F 89% 30.00 in 10.0 mi SSW 3.5 mph - N/A   Overcast
4:53 PM 41.0 °F 39.0 °F 37.9 °F 89% 29.98 in 10.0 mi South 3.5 mph - N/A   Overcast
5:53 PM 41.0 °F 37.1 °F 37.9 °F 89% 29.96 in 10.0 mi South 5.8 mph - N/A   Overcast
6:53 PM 41.0 °F 38.0 °F 37.9 °F 89% 29.95 in 10.0 mi South 4.6 mph - 0.00 in Rain Light Rain
7:53 PM 39.9 °F 36.7 °F 39.0 °F 97% 29.93 in 10.0 mi SSW 4.6 mph - 0.02 in Rain Light Rain
8:03 PM 39.2 °F 35.9 °F 39.2 °F 100% 29.89 in 7.0 mi South 4.6 mph - 0.00 in Rain Light Rain
9:53 PM 41.0 °F 36.4 °F 39.0 °F 93% 29.91 in 4.0 mi SSW 6.9 mph - 0.02 in Rain Light Rain
10:53 PM 41.0 °F 37.1 °F 39.9 °F 96% 29.88 in 6.0 mi SSW 5.8 mph - 0.01 in   Overcast
11:37 PM 41.0 °F 36.4 °F 39.2 °F 93% 29.84 in 8.0 mi South 6.9 mph - N/A   Overcast
11:53 PM 41.0 °F 36.4 °F 39.9 °F 96% 29.86 in 10.0 mi SSW 6.9 mph - N/A   Overcast